Flag for Madagascar Weather past 2 weeks in Antananarivo, Madagascar

Now
70 °F

Passing clouds.


Feels Like: 70 °F
Forecast: 54 / 79 °F
Wind: 10 mph from East

Location: Antananarivo / Ivato

Current Time: Sep 21, 2014 at 6:05:49 PM

Latest Report: Sep 21, 2014 at 5:30 PM


Visibility: N/A

Pressure: 30.18 "Hg

Humidity: 64%

Dew point: 57 °F

Location of AntananarivoLocation

Historic Weather in Antananarivo — Graph

°F

Antananarivo temperature yesterday

Maximum temperature yesterday: 79 °F (at 11:30 AM)
Minimum temperature yesterday: 50 °F (at 3:00 AM)
Average temperature yesterday: 64 °F

Past Weeks' High & Low Weather Summary

 TemperatureHumidityPressure
High84 °F (Sep 13, 1:30 PM)100% (Sep 6, 5:00 PM)30.42 "Hg (Sep 6, 5:00 PM)
Low43 °F (Sep 14, 5:00 AM)16% (Sep 14, 12:00 PM)30.15 "Hg (Sep 17, 1:30 PM)
Average62 °F80%30.29 "Hg
* Reported Sep 6 5:00 PM — Sep 21 5:00 PM, Antananarivo, Weather by CustomWeather, © 2014

Note: Actual official high and low records may vary slightly from our data, if they occured in-between our weather recording intervals... More about our weather records

Advertising

Antananarivo weather history for previous 24 hours

 ConditionsComfort  
Time TempWeatherWind HumidityBarometerVisibility
5:00 PM
Sep 21
72 °FPassing clouds.10 mph61%30.15 "HgN/A
4:30 PM75 °FPassing clouds.9 mph50%30.15 "HgN/A
4:00 PM77 °FPassing clouds.7 mph47%30.15 "HgN/A
3:30 PM79 °FPassing clouds.5 mph48%30.15 "HgN/A
3:00 PM79 °FPassing clouds.5 mph48%30.15 "HgN/A
2:30 PM77 °FScattered clouds.7 mph47%30.15 "HgN/A
2:00 PM77 °FPassing clouds.8 mph47%30.18 "HgN/A
1:30 PM77 °FPassing clouds.8 mph47%30.18 "HgN/A
1:00 PM77 °FPassing clouds.8 mph51%30.18 "HgN/A
12:30 PM75 °FPassing clouds.8 mph54%30.21 "HgN/A
12:00 PM75 °FPassing clouds.9 mph57%30.21 "HgN/A
11:30 AM75 °FPassing clouds.8 mph54%30.24 "HgN/A
11:00 AM73 °FPassing clouds.8 mph57%30.24 "HgN/A
10:30 AM72 °FPassing clouds.7 mph61%30.27 "HgN/A
10:00 AM70 °FScattered clouds.9 mph60%30.27 "HgN/A
9:30 AM70 °FPartly sunny.9 mph64%30.27 "HgN/A
9:00 AM68 °FPartly sunny.10 mph69%30.27 "HgN/A
8:30 AM63 °FPartly sunny.8 mph88%30.27 "HgN/A
8:00 AM63 °FPartly sunny.8 mph94%30.27 "HgN/A
7:30 AM59 °FPartly sunny.6 mph100%30.27 "HgN/A
7:00 AM61 °FPassing clouds.5 mph100%30.27 "HgN/A
6:30 AM57 °FPassing clouds.5 mph100%30.27 "HgN/A
6:00 AM55 °FPassing clouds.6 mph100%30.24 "HgN/A
5:30 AM55 °FPassing clouds.5 mph100%30.24 "HgN/A
5:00 AM55 °FPassing clouds.5 mph100%30.24 "HgN/A
4:00 AM57 °FPassing clouds.5 mph100%30.24 "HgN/A
3:00 AM57 °FPassing clouds.8 mph100%30.24 "HgN/A
2:30 AM57 °FPassing clouds.7 mph100%30.21 "HgN/A
2:00 AM57 °FPassing clouds.8 mph100%30.24 "HgN/A
1:00 AM61 °FPassing clouds.7 mph100%30.24 "HgN/A
12:30 AM61 °FPassing clouds.5 mph100%30.27 "HgN/A
11:30 PM
Sep 20
61 °FPassing clouds.9 mph100%30.27 "HgN/A
11:00 PM61 °FPassing clouds.8 mph100%30.27 "HgN/A
10:30 PM61 °FPassing clouds.7 mph100%30.27 "HgN/A
10:00 PM63 °FPassing clouds.7 mph100%30.27 "HgN/A
9:30 PM63 °FPassing clouds.6 mph100%30.30 "HgN/A
9:00 PM63 °FPassing clouds.7 mph100%30.27 "HgN/A
Weather by CustomWeather, © 2014

See weather overviewHow to use our weather pages